Grand Island, NE

3:44 PM CST on December 16, 2017 (GMT -0600)
Central Nebraska Regional

Weather History for KGRI - April, 2013

Change the Weather History Date:

Thursday, April 18, 2013

  Actual Average Record
Temperature  
Mean Temperature 31 °F 52 °F  
Max Temperature 35 °F 64 °F 93 °F (1994)
Min Temperature 27 °F 39 °F 17 °F (1953)
Degree Days  
Heating Degree Days 34 14  
Month to date heating degree days 395 303  
Since 1 July heating degree days 5752 5860  
Cooling Degree Days 0 0  
Month to date cooling degree days 0 0  
Year to date cooling degree days 0 0  
Moisture  
Dew Point 26 °F    
Average Humidity 81    
Maximum Humidity 92    
Minimum Humidity 69    
Precipitation  
Precipitation 0.08 in 0.08 in 1.15 in (1970)
Month to date precipitation 2.75 1.34  
Year to date precipitation 5.52 4.35  
Snow  
Snow 2.80 in 0.00 in 4.00 in (2013)
Month to date snowfall 5.7 1.2  
Since 1 July snowfall 33.3 28.7  
Snow Depth 2.00 in    
Sea Level Pressure  
Sea Level Pressure 29.94 in    
Wind  
Wind Speed 26 mph (NW)    
Max Wind Speed 29 mph    
Max Gust Speed 37 mph    
Visibility 4 miles    
Events Fog , Snow    
T = Trace of Precipitation, MM = Missing Value Source: NWS Daily Summary

Daily Weather History Graph

Daily Weather History Graph

Search for Another Location

Airport or City:

Trip Planner

Search our weather history database for the weather conditions in past years. The results will help you decide how hot, cold, wet, or windy it might be!

Date:

Astronomy

Apr. 18, 2013 Rise Set
Actual Time 6:49 AM CDT 8:16 PM CDT
Civil Twilight 6:20 AM CDT 8:45 PM CDT
Nautical Twilight 5:45 AM CDT 9:20 PM CDT
Astronomical Twilight 5:09 AM CDT 9:56 PM CDT
Moon 1:01 PM CDT (4/18) 2:32 AM CDT (4/18)
Length of Visible Light 14h 24m
Length of Day
13h 27m
First Quarter, 52% of the Moon is Illuminated
Apr 18
First Quarter
Apr 25
Full
May 2
Last Quarter
May 9
New
May 17
First Quarter

Hourly Weather History & Observations

Time (CDT) Temp. Windchill Dew Point Humidity Pressure Visibility Wind Dir Wind Speed Gust Speed Precip Events Conditions
12:29 AM 32.0 °F - 30.2 °F 93% 29.88 in 1.5 mi North - - 0.00 in Snow Light Snow
12:42 AM 32.0 °F - 30.2 °F 93% 29.93 in 0.8 mi North - - 0.00 in Snow Light Snow
12:53 AM 30.9 °F - 30.0 °F 96% 29.95 in 0.8 mi North - - 0.00 in Snow Light Snow
1:29 AM 30.2 °F - 30.2 °F 100% 29.94 in 1.2 mi North - - 0.03 in Snow Light Snow
1:49 AM 30.2 °F - 28.4 °F 93% 29.93 in 2.5 mi North - - 0.03 in Snow Light Snow
1:53 AM 30.9 °F - 28.9 °F 92% 29.98 in 2.5 mi North - - 0.03 in Snow Light Snow
2:13 AM 30.2 °F - 28.4 °F 93% 29.88 in 1.2 mi North - - 0.00 in Snow Light Snow
2:19 AM 30.2 °F - 28.4 °F 93% 29.92 in 1.0 mi North - - 0.00 in Snow Light Snow
2:53 AM 30.0 °F - 28.0 °F 92% 29.91 in 2.0 mi North - - 0.02 in Snow Light Snow
3:09 AM 30.2 °F - 28.4 °F 93% 29.87 in 3.0 mi North - - 0.00 in Snow Light Snow
3:21 AM 30.2 °F - 28.4 °F 93% 29.87 in 3.0 mi North - - 0.00 in Snow Light Snow
3:27 AM 30.2 °F - 28.4 °F 93% 29.86 in 2.5 mi North - - 0.00 in Snow Light Snow
3:34 AM 30.2 °F - 28.4 °F 93% 29.86 in 2.5 mi North - - 0.00 in Snow Light Snow
3:53 AM 30.0 °F - 27.0 °F 88% 29.92 in 3.0 mi North - - 0.00 in Snow Light Snow
4:35 AM 28.4 °F - 26.6 °F 93% 29.87 in 2.5 mi North - - 0.00 in Snow Light Snow
4:42 AM 28.4 °F - 26.6 °F 93% 29.88 in 1.8 mi North - - 0.00 in Snow Light Snow
4:53 AM 28.9 °F - 26.1 °F 89% 29.92 in 1.5 mi North - - 0.00 in Snow Light Snow
5:26 AM 28.4 °F - 26.6 °F 93% 29.86 in 2.0 mi North - - 0.00 in Snow Light Snow
5:43 AM 28.4 °F - 26.6 °F 93% 29.86 in 3.0 mi North - - 0.00 in Snow Light Snow
5:53 AM 28.0 °F - 26.1 °F 92% 29.92 in 3.0 mi North - - 0.00 in Snow Light Snow
6:08 AM 28.4 °F - 26.6 °F 93% 29.87 in 4.0 mi North - - 0.00 in Snow Light Snow
6:18 AM 28.4 °F - 24.8 °F 86% 29.87 in 1.8 mi North - - 0.00 in Snow Light Snow
6:53 AM 28.0 °F - 26.1 °F 92% 29.93 in 1.2 mi North - - 0.00 in Snow Light Snow
7:00 AM 28.4 °F - 26.6 °F 93% 29.89 in 1.0 mi North - - 0.00 in Snow Light Snow
7:09 AM 28.4 °F 13.5 °F 24.8 °F 86% 29.89 in 0.8 mi NNW 26.5 mph 32.2 mph 0.00 in Snow Light Snow
7:53 AM 28.0 °F 13.0 °F 26.1 °F 92% 29.95 in 0.5 mi NNW 26.5 mph 32.2 mph 0.01 in Fog , Snow Snow
7:55 AM 28.4 °F 13.8 °F 26.6 °F 93% 29.89 in 0.5 mi NW 25.3 mph 36.8 mph 0.00 in Fog , Snow Snow
8:22 AM 28.4 °F 13.8 °F 26.6 °F 93% 29.90 in 0.5 mi NW 25.3 mph 36.8 mph 0.00 in Fog , Snow Snow
8:44 AM 28.4 °F 13.8 °F 26.6 °F 93% 29.90 in 0.2 mi NW 25.3 mph 36.8 mph 0.00 in Fog , Snow Heavy Snow
8:48 AM 28.4 °F 13.8 °F 26.6 °F 93% 29.90 in 0.5 mi NW 25.3 mph 36.8 mph 0.00 in Fog , Snow Snow
8:53 AM 28.0 °F 13.3 °F 26.1 °F 92% 29.95 in 0.5 mi NW 25.3 mph 36.8 mph 0.00 in Fog , Snow Snow
9:12 AM 26.6 °F 12.0 °F 26.6 °F 100% 29.90 in 0.2 mi NW 23.0 mph 35.7 mph 0.00 in Fog , Snow Snow
9:24 AM 28.4 °F 14.4 °F 26.6 °F 93% 29.90 in 0.5 mi NW 23.0 mph 35.7 mph 0.00 in Fog , Snow Snow
9:53 AM 28.0 °F 13.9 °F 26.1 °F 92% 29.96 in 0.5 mi NW 23.0 mph 35.7 mph 0.00 in Fog , Snow Snow
10:10 AM 28.4 °F 14.7 °F 24.8 °F 86% 29.92 in 0.5 mi NW 21.9 mph 33.4 mph 0.00 in Fog , Snow Snow
10:19 AM 28.4 °F 14.7 °F 26.6 °F 93% 29.92 in 0.5 mi NW 21.9 mph 33.4 mph 0.00 in Fog , Snow Snow
10:34 AM 28.4 °F 14.7 °F 26.6 °F 93% 29.92 in 0.8 mi NW 21.9 mph 33.4 mph 0.00 in Snow Light Snow
10:51 AM 28.4 °F 14.7 °F 26.6 °F 93% 29.92 in 1.0 mi NW 21.9 mph 33.4 mph 0.02 in Snow Light Snow
10:53 AM 28.9 °F 15.4 °F 26.1 °F 89% 29.98 in 1.0 mi NW 21.9 mph 33.4 mph 0.02 in Snow Light Snow
11:38 AM 30.2 °F 17.1 °F 24.8 °F 80% 29.92 in 1.5 mi NW 21.9 mph 32.2 mph 0.00 in Snow Light Snow
11:53 AM 30.0 °F 16.9 °F 25.0 °F 82% 29.98 in 1.2 mi NW 21.9 mph 32.2 mph 0.00 in Snow Light Snow
12:00 PM 30.2 °F 16.2 °F 26.6 °F 86% 29.92 in 1.0 mi NW 25.3 mph 34.5 mph 0.00 in Snow Light Snow
12:17 PM 30.2 °F 16.2 °F 26.6 °F 86% 29.93 in 2.5 mi NW 25.3 mph 34.5 mph 0.00 in Snow Light Snow
12:27 PM 30.2 °F 16.2 °F 24.8 °F 80% 29.93 in 4.0 mi NW 25.3 mph 34.5 mph 0.00 in   Overcast
12:46 PM 30.2 °F 16.2 °F 24.8 °F 80% 29.92 in 2.5 mi NW 25.3 mph 34.5 mph 0.00 in Snow Light Snow
12:53 PM 30.9 °F 17.2 °F 25.0 °F 79% 29.98 in 3.0 mi NW 25.3 mph 34.5 mph 0.00 in Snow Light Snow
1:15 PM 30.2 °F 15.4 °F 24.8 °F 80% 29.92 in 2.0 mi NW 28.8 mph 34.5 mph 0.00 in Snow Light Snow
1:25 PM 32.0 °F 17.9 °F 24.8 °F 75% 29.92 in 4.0 mi NW 28.8 mph 34.5 mph 0.00 in Snow Light Snow
1:33 PM 30.2 °F 15.4 °F 24.8 °F 80% 29.93 in 1.8 mi NW 28.8 mph 34.5 mph 0.00 in Snow Light Snow
1:41 PM 32.0 °F 17.9 °F 24.8 °F 75% 29.93 in 3.0 mi NW 28.8 mph 34.5 mph 0.00 in Snow Light Snow
1:53 PM 32.0 °F 17.9 °F 25.0 °F 75% 29.98 in 6.0 mi NW 28.8 mph 34.5 mph 0.00 in   Overcast
2:12 PM 33.8 °F 20.3 °F 24.8 °F 70% 29.93 in 10.0 mi NW 28.8 mph 34.5 mph N/A   Overcast
2:20 PM 33.8 °F 20.3 °F 24.8 °F 70% 29.93 in 10.0 mi NW 28.8 mph 34.5 mph N/A   Overcast
2:46 PM 33.8 °F 20.3 °F 24.8 °F 70% 29.93 in 10.0 mi NW 28.8 mph 34.5 mph N/A   Mostly Cloudy
2:53 PM 33.1 °F 19.3 °F 26.1 °F 75% 29.99 in 10.0 mi NW 28.8 mph 34.5 mph N/A   Overcast
3:22 PM 33.8 °F 20.3 °F 24.8 °F 70% 29.93 in 10.0 mi NW 28.8 mph 34.5 mph N/A   Overcast
3:42 PM 33.8 °F 20.3 °F 24.8 °F 70% 29.93 in 10.0 mi NW 28.8 mph 34.5 mph N/A   Overcast
3:49 PM 33.8 °F 20.3 °F 24.8 °F 70% 29.93 in 10.0 mi NW 28.8 mph 34.5 mph N/A   Overcast
3:53 PM 34.0 °F 20.5 °F 25.0 °F 70% 29.99 in 10.0 mi NW 28.8 mph 34.5 mph N/A   Overcast
4:53 PM 34.0 °F 20.5 °F 25.0 °F 70% 30.00 in 10.0 mi NW 28.8 mph 34.5 mph N/A   Overcast
5:53 PM 34.0 °F 20.5 °F 25.0 °F 70% 30.01 in 10.0 mi NW 28.8 mph 34.5 mph N/A   Overcast
6:53 PM 33.1 °F 19.3 °F 24.1 °F 70% 30.04 in 8.0 mi NW 28.8 mph 34.5 mph N/A   Overcast
7:53 PM 32.0 °F 17.9 °F 24.1 °F 73% 30.04 in 10.0 mi NW 28.8 mph 34.5 mph 0.00 in   Overcast
8:53 PM 32.0 °F - 24.1 °F 73% 30.05 in 10.0 mi North - - N/A   Partly Cloudy
9:53 PM 30.9 °F - 24.1 °F 76% 30.06 in 10.0 mi North - - N/A   Clear
10:53 PM 30.9 °F - 24.1 °F 76% 30.06 in 10.0 mi North - - N/A   Clear
11:53 PM 30.0 °F - 23.0 °F 75% 30.04 in 10.0 mi North - - N/A   Clear